[[{"header":{"parameterUnit":"m.s-1","parameterCategory":2,"la1":30.2991,"la2":30.254,"lo1":-89.0895,"lo2":-89.0444,"dy":0.0017,"dx":0.0017,"nx":28,"ny":28,"refTime":"2025-05-01T09:00:00:Z","depth":"0","parameterNumber":2,"parameterNumberName":"U-component_of_CURRENTS"},"data":[0,0,0,0,0,0,0,0,0,0,0,0,0,0,0,0,0,0,0,0,0,0,0,0,0,0,0,0,0,0,0,0,0,0,0,0,0,0,0,0,0,0,0,0,0,0,0,0,0,0,0,0,0,0,0,0,0,0,-0.2628,-0.2629,0,-0.2705,-0.2706,-0.2706,-0.2682,-0.268,-0.2679,-0.2678,-0.2693,-0.2695,-0.2697,0,0,0,0,0,0,0,0,0,0,0,0,0,-0.2484,-0.2487,-0.2628,-0.2629,-0.263,-0.2705,-0.2706,-0.2706,-0.2682,-0.268,-0.2679,-0.2677,-0.2693,-0.2695,-0.2697,0,0,0,0,0,0,0,0,0,0,0,0,0,-0.255,-0.2488,-0.2628,-0.2629,-0.263,-0.2705,-0.2706,-0.2707,-0.2682,-0.268,-0.2678,-0.2676,-0.2692,-0.2695,-0.2697,-0.2755,0,0,-0.2705,-0.2706,0,0,0,0,0,0,0,0,-0.2546,-0.2555,-0.2628,-0.2629,-0.263,-0.2684,-0.2661,-0.2721,-0.2683,-0.266,-0.2678,-0.2675,-0.2688,-0.2691,-0.2707,-0.2756,-0.2757,-0.2705,-0.2707,-0.2708,-0.2709,0,0,0,0,0,0,0,-0.2542,-0.2552,-0.2656,-0.2629,-0.2631,-0.2634,-0.2641,-0.2672,-0.2681,-0.2662,-0.2661,-0.2674,-0.2687,-0.2705,-0.2707,-0.2757,-0.2705,-0.2707,-0.2709,-0.271,-0.2799,-0.2799,0,0,0,0,0,0,-0.2539,-0.2548,-0.2653,-0.2658,-0.2585,-0.2639,-0.2646,-0.2667,-0.2682,-0.2684,-0.2676,-0.2673,-0.2701,-0.2704,-0.2707,-0.2732,-0.2708,-0.271,-0.2712,-0.2798,-0.2799,-0.28,0,0,0,0,0,0,-0.2536,-0.2548,-0.265,-0.2606,-0.2619,-0.2644,-0.2667,-0.2669,-0.268,-0.2694,-0.2694,-0.2683,-0.27,-0.2704,-0.273,-0.2734,-0.2712,-0.2714,-0.2797,-0.2798,-0.2799,-0.281,0,0,0,0,0,0,-0.2532,-0.2547,-0.2553,-0.2606,-0.2622,-0.2689,-0.267,-0.2673,-0.2693,-0.2689,-0.2701,-0.2701,-0.2698,-0.2726,-0.2732,-0.2737,-0.2716,-0.2796,-0.2797,-0.2799,-0.2809,-0.2812,-0.2814,0,0,0,0,0,-0.2526,-0.255,-0.2553,-0.2565,-0.2633,-0.269,-0.2698,-0.2706,-0.2695,-0.2706,-0.2712,-0.27,-0.2739,-0.273,-0.2737,-0.2742,-0.2795,-0.2797,-0.2799,-0.2808,-0.2811,-0.2814,0,0,0,0,0,0,-0.2488,-0.2552,-0.2556,-0.2595,-0.2635,-0.2686,-0.27,-0.2712,-0.2729,-0.2721,-0.2723,-0.2725,-0.2745,-0.2751,-0.274,-0.2772,-0.2761,-0.2764,-0.2765,-0.2769,-0.2771,-0.2767,-0.2718,0,0,0,0,0,-0.2486,-0.2516,-0.2575,-0.2602,-0.2625,-0.2663,-0.2685,-0.2698,-0.2727,-0.2731,-0.2742,-0.275,-0.2764,-0.277,-0.2785,-0.2817,-0.2804,-0.2821,-0.2824,-0.2826,-0.2828,-0.2823,-0.2825,-0.2806,-0.2806,-0.2806,0,0,-0.2475,-0.2515,-0.2529,-0.2595,-0.2624,-0.2668,-0.267,-0.271,-0.2736,-0.2733,-0.276,-0.2765,-0.2775,-0.2797,-0.2806,-0.2799,-0.2822,-0.2828,-0.283,-0.283,-0.2825,-0.2826,-0.2828,-0.2807,-0.2807,-0.2806,0,0,-0.2481,-0.2509,-0.2539,-0.258,-0.2636,-0.2667,-0.2681,-0.2737,-0.2745,-0.2786,-0.2779,-0.2788,-0.2822,-0.2822,-0.2827,-0.286,-0.2837,-0.2862,-0.2872,-0.2867,-0.2868,-0.2869,-0.2841,-0.284,-0.2861,-0.2861,-0.2861,0,-0.2462,-0.2514,-0.2555,-0.2601,-0.2632,-0.2668,-0.2709,-0.2737,-0.2789,-0.2801,-0.279,-0.2828,-0.2831,-0.2853,-0.2854,-0.2864,-0.2851,-0.2857,-0.2869,-0.287,-0.2871,-0.2842,-0.284,-0.2862,-0.2862,-0.2862,-0.2862,0,-0.2499,-0.2538,-0.2562,-0.2628,-0.2666,-0.2709,-0.276,-0.2788,-0.2802,-0.2826,-0.285,-0.2858,-0.2874,-0.2875,-0.2874,-0.2885,-0.2868,-0.2872,-0.2857,-0.2873,-0.2842,-0.284,-0.2863,-0.2863,-0.2863,-0.2863,0,0,-0.2459,-0.2566,-0.2571,-0.2602,-0.2685,-0.272,-0.2768,-0.2821,-0.2842,-0.2871,-0.2891,-0.2908,-0.2903,-0.2909,-0.2906,-0.2902,-0.2886,-0.2888,-0.2887,-0.2853,-0.2856,-0.2759,-0.2746,-0.289,-0.289,-0.289,-0.2827,0,-0.2469,-0.255,-0.2604,-0.2664,-0.2708,-0.276,-0.2803,-0.2849,-0.2877,-0.2905,-0.291,-0.2926,-0.2919,-0.2918,-0.2915,-0.2903,-0.2883,-0.2901,-0.2853,-0.2851,-0.2757,-0.2742,-0.2638,-0.2565,-0.2824,-0.2824,-0.2824,0,-0.2479,-0.2536,-0.2603,-0.2686,-0.2709,-0.2747,-0.2809,-0.2851,-0.2902,-0.2923,-0.2941,-0.2948,-0.2953,-0.2936,-0.2914,-0.2927,-0.2888,-0.2869,-0.2866,-0.2771,-0.275,-0.2595,-0.2551,-0.2547,-0.282,-0.282,-0.282,0,-0.2423,-0.2524,-0.2572,-0.2604,-0.2711,-0.2737,-0.2781,-0.2845,-0.2878,-0.2923,-0.2943,-0.2959,-0.2957,-0.2934,-0.2894,-0.2905,-0.2853,-0.2864,-0.2735,-0.2727,-0.2625,-0.2608,-0.2564,-0.2828,-0.2828,-0.2828,-0.2828,0,-0.2412,-0.2446,-0.2547,-0.2576,-0.2618,-0.2699,-0.2742,-0.279,-0.2857,-0.2884,-0.2933,-0.2945,-0.2956,-0.2932,-0.2894,-0.2796,-0.2848,-0.2724,-0.2702,-0.2624,-0.2608,-0.259,-0.2631,-0.2826,-0.2826,-0.2827,-0.2827,0,-0.2341,-0.2417,-0.2469,-0.2571,-0.2595,-0.2616,-0.271,-0.2738,-0.2817,-0.2851,-0.2864,-0.2926,-0.2889,-0.2873,-0.2827,-0.2777,-0.2661,-0.2655,-0.2547,-0.2513,-0.2381,-0.2427,-0.2368,-0.2297,-0.2503,-0.2501,-0.2498,0,-0.2312,-0.2335,-0.2431,-0.2448,-0.249,-0.2544,-0.2579,-0.2689,-0.2725,-0.2825,-0.2827,-0.2831,-0.2787,-0.2692,-0.2609,-0.2502,-0.2533,-0.2361,-0.236,-0.2343,-0.238,-0.2426,-0.2374,-0.2229,-0.2225,-0.2221,-0.2218,0,-0.2234,-0.2267,-0.2305,-0.2349,-0.2385,-0.2432,-0.2494,-0.2524,-0.2644,-0.2679,-0.2696,-0.2668,-0.2593,-0.2447,-0.2333,-0.2264,-0.2318,-0.2281,-0.2302,-0.2183,-0.2195,-0.2125,-0.2301,-0.2186,-0.219,-0.2192,-0.2194,-0.2195,-0.2143,-0.2143,-0.2187,-0.2215,-0.2256,-0.2279,-0.2269,-0.235,-0.2377,-0.239,-0.2485,-0.2402,-0.2352,-0.2161,-0.2091,-0.1969,-0.2046,-0.1936,-0.1997,-0.2048,-0.1964,-0.205,-0.1891,-0.1893,-0.1894,-0.1895,-0.1896,0,-0.2009,-0.2025,-0.2048,-0.2073,-0.2055,-0.213,-0.2171,-0.2131,-0.21,-0.2145,-0.2126,-0.2073,-0.1947,-0.1913,-0.1816,-0.1735,-0.1706,-0.172,-0.1783,-0.1744,-0.1837,-0.1808,-0.1577,-0.1577,-0.1577,-0.1577,-0.1577,-0.1578,-0.1936,-0.1906,-0.1928,-0.1853,-0.1864,-0.1788,-0.1772,-0.1733,-0.1727,-0.1639,-0.1623,-0.163,-0.1694,-0.1883,-0.1789,-0.1696,-0.1682,-0.163,-0.1667,-0.1775,-0.1802,-0.1827,-0.1807,-0.1581,-0.1581,-0.15,-0.15,-0.1499]},{"header":{"parameterUnit":"m.s-1","parameterCategory":2,"la1":30.2991,"la2":30.254,"lo1":-89.0895,"lo2":-89.0444,"dy":0.0017,"dx":0.0017,"nx":28,"ny":28,"refTime":"2025-05-01T09:00:00:Z","depth":"0","parameterNumber":3,"parameterNumberName":"V-component_of_CURRENTS"},"data":[0,0,0,0,0,0,0,0,0,0,0,0,0,0,0,0,0,0,0,0,0,0,0,0,0,0,0,0,0,0,0,0,0,0,0,0,0,0,0,0,0,0,0,0,0,0,0,0,0,0,0,0,0,0,0,0,0,0,-0.0043,-0.0042,0,0.0066,0.0068,0.0069,0.0156,0.0157,0.0158,0.0158,0.0333,0.0337,0.0341,0,0,0,0,0,0,0,0,0,0,0,0,0,-0.0112,-0.0111,-0.0043,-0.0042,-0.0041,0.0066,0.0068,0.007,0.0156,0.0157,0.0158,0.0159,0.0332,0.0336,0.0341,0,0,0,0,0,0,0,0,0,0,0,0,0,-0.0048,-0.0111,-0.0043,0.0014,0.002,0.0066,0.0068,0.007,0.0156,0.0157,0.0158,0.0159,0.033,0.0336,0.0342,0.0359,0,0,0.036,0.0363,0,0,0,0,0,0,0,0,-0.0052,-0.0046,0.0004,0.001,0.0017,0.0097,0.0108,0.0169,0.0156,0.0107,0.0158,0.0159,0.0258,0.027,0.029,0.0367,0.0374,0.0361,0.0364,0.0367,0.0369,0,0,0,0,0,0,0,-0.0057,-0.005,0.0003,0.0005,0.0013,0.0056,0.0066,0.012,0.0178,0.0111,0.0117,0.0125,0.0262,0.0284,0.0295,0.0377,0.0361,0.0366,0.037,0.0372,0.0497,0.0497,0,0,0,0,0,0,-0.0079,-0.0054,-0.0001,0.0006,-0.0018,0.0056,0.0067,0.0072,0.0176,0.0192,0.0124,0.0129,0.0273,0.0288,0.0302,0.0335,0.0367,0.0373,0.0376,0.0498,0.0497,0.0497,0,0,0,0,0,0,-0.0081,-0.0076,-0.0005,-0.0023,-0.0011,0.0055,0.0061,0.0073,0.0097,0.0185,0.0203,0.0134,0.0275,0.0293,0.0346,0.0342,0.0375,0.0381,0.0498,0.0498,0.0497,0.0397,0,0,0,0,0,0,-0.0084,-0.0077,-0.0085,-0.0025,-0.0011,0.0011,0.006,0.0075,0.0099,0.0106,0.0199,0.0217,0.0277,0.0337,0.0352,0.0351,0.0385,0.0498,0.0498,0.0497,0.0401,0.0393,0.0387,0,0,0,0,0,-0.0087,-0.0106,-0.0086,-0.0079,-0.0023,0.001,0.0021,0.0075,0.0098,0.0101,0.0165,0.0214,0.0345,0.0341,0.0359,0.036,0.0499,0.0498,0.0497,0.0404,0.0395,0.0387,0,0,0,0,0,0,-0.0141,-0.0097,-0.0074,-0.0079,-0.0041,0.0024,0.0028,0.0064,0.0117,0.0124,0.0211,0.0232,0.0276,0.033,0.0323,0.0395,0.043,0.0433,0.0352,0.0345,0.0338,0.0322,0.039,0,0,0,0,0,-0.0158,-0.016,-0.0107,-0.0112,-0.0098,-0.0037,-0.0018,0.0017,0.0071,0.0095,0.016,0.0229,0.0287,0.0323,0.0379,0.0418,0.0478,0.0431,0.0424,0.0418,0.0417,0.0492,0.0492,0.0495,0.0495,0.0495,0,0,-0.018,-0.0158,-0.0157,-0.0124,-0.009,-0.008,-0.0023,-0.0004,0.0013,0.0105,0.0143,0.0204,0.029,0.0333,0.0358,0.0379,0.0448,0.0417,0.0411,0.0414,0.0491,0.0491,0.0491,0.0495,0.0495,0.0495,0,0,-0.023,-0.0206,-0.0224,-0.0199,-0.0161,-0.0121,-0.0121,-0.0061,-0.0026,0.0014,0.0085,0.0142,0.0228,0.0292,0.0335,0.0325,0.0404,0.034,0.0301,0.0372,0.0373,0.0374,0.0446,0.0455,0.0342,0.0342,0.0342,0,-0.026,-0.0271,-0.0224,-0.0232,-0.0217,-0.0146,-0.0156,-0.0112,-0.0042,-0.0012,0.0012,0.0144,0.0211,0.028,0.0276,0.031,0.0362,0.0322,0.0362,0.0365,0.0368,0.0442,0.0453,0.0337,0.0338,0.0338,0.0339,0,-0.0317,-0.0323,-0.0333,-0.0316,-0.0294,-0.0293,-0.0229,-0.02,-0.0151,-0.0096,-0.0026,0.0067,0.015,0.0177,0.0225,0.0278,0.0312,0.0338,0.0379,0.0361,0.0441,0.0454,0.033,0.0332,0.0333,0.0335,0,0,-0.0388,-0.0378,-0.038,-0.0386,-0.0339,-0.0328,-0.0301,-0.025,-0.0226,-0.0149,-0.0104,-0.0006,0.0051,0.0104,0.0176,0.0239,0.0301,0.0287,0.0293,0.0351,0.0462,0.0509,0.0529,0.0331,0.0333,0.0334,0.0509,0,-0.0447,-0.049,-0.0457,-0.0483,-0.0496,-0.0423,-0.0401,-0.0342,-0.0273,-0.0212,-0.01,-0.0033,0.0024,0.0064,0.0133,0.0261,0.033,0.0252,0.0478,0.0485,0.0523,0.0544,0.0617,0.0781,0.0522,0.0524,0.0525,0,-0.0512,-0.0531,-0.0575,-0.0565,-0.0562,-0.0559,-0.0506,-0.0475,-0.0365,-0.0308,-0.0216,-0.012,-0.0006,0.0038,0.0246,0.0191,0.0314,0.0413,0.0422,0.0512,0.0557,0.076,0.0815,0.1017,0.0546,0.0544,0.0543,0,-0.059,-0.061,-0.065,-0.0647,-0.0622,-0.0619,-0.0596,-0.0508,-0.0476,-0.0362,-0.032,-0.0171,-0.0082,0.0075,0.0283,0.0265,0.0517,0.0525,0.0689,0.0694,0.0826,0.0839,0.1099,0.0672,0.0672,0.0671,0.0671,0,-0.0666,-0.0695,-0.0692,-0.0715,-0.0751,-0.0698,-0.0701,-0.065,-0.0564,-0.0514,-0.0378,-0.0292,-0.0069,0.0107,0.0276,0.053,0.0521,0.0693,0.0746,0.0792,0.08,0.1038,0.1088,0.0678,0.0676,0.0675,0.0674,0,-0.0744,-0.0742,-0.0789,-0.0789,-0.0792,-0.0816,-0.0786,-0.0776,-0.0686,-0.0614,-0.0578,-0.0368,-0.0126,0.0107,0.0395,0.0535,0.0893,0.0854,0.0893,0.0946,0.1254,0.1293,0.1573,0.169,0.1053,0.1056,0.1058,0,-0.0789,-0.0824,-0.0858,-0.0892,-0.0897,-0.0917,-0.0924,-0.085,-0.0822,-0.0644,-0.0608,-0.0359,-0.0145,0.0286,0.0583,0.0904,0.1037,0.1138,0.1114,0.1299,0.1382,0.1402,0.1481,0.1259,0.1263,0.1265,0.1268,0,-0.0871,-0.0879,-0.0916,-0.0991,-0.1023,-0.1048,-0.1042,-0.1038,-0.0918,-0.0807,-0.0601,-0.0408,0.0029,0.0449,0.0846,0.1033,0.1284,0.1202,0.1405,0.1574,0.1606,0.1735,0.1111,0.1293,0.129,0.1288,0.1287,0.1286,-0.092,-0.0968,-0.1016,-0.1083,-0.1124,-0.1154,-0.1156,-0.1095,-0.1007,-0.0775,-0.0596,-0.0205,0.0347,0.0934,0.1137,0.1596,0.1512,0.1741,0.1778,0.1786,0.1889,0.1307,0.1529,0.1528,0.1527,0.1527,0.1526,0,-0.0975,-0.1025,-0.1103,-0.1171,-0.1223,-0.1219,-0.1208,-0.1136,-0.0997,-0.07,-0.0426,0.0294,0.0849,0.1339,0.1939,0.2176,0.2214,0.229,0.2365,0.2421,0.1948,0.1948,0.2257,0.2257,0.2257,0.2257,0.2257,0.2256,-0.1005,-0.1088,-0.1129,-0.123,-0.1272,-0.1283,-0.1263,-0.1094,-0.0862,-0.0338,0.0139,0.0497,0.1168,0.2097,0.267,0.2717,0.2922,0.2885,0.2978,0.2676,0.2628,0.2582,0.26,0.3041,0.3042,0.3475,0.3479,0.3482]}],[{"header":{"parameterUnit":"m.s-1","parameterCategory":2,"la1":30.2991,"la2":30.254,"lo1":-89.0895,"lo2":-89.0444,"dy":0.0017,"dx":0.0017,"nx":28,"ny":28,"refTime":"2025-05-01T09:00:00:Z","depth":"2","parameterNumber":2,"parameterNumberName":"U-component_of_CURRENTS"},"data":[0,0,0,0,0,0,0,0,0,0,0,0,0,0,0,0,0,0,0,0,0,0,0,0,0,0,0,0,0,0,0,0,0,0,0,0,0,0,0,0,0,0,0,0,0,0,0,0,0,0,0,0,0,0,0,0,0,0,-0.2564,-0.2565,0,-0.2638,-0.2639,-0.264,-0.2617,-0.2616,-0.2615,-0.2614,-0.2626,-0.2627,-0.2629,0,0,0,0,0,0,0,0,0,0,0,0,0,-0.2425,-0.2427,-0.2564,-0.2565,-0.2566,-0.2638,-0.2639,-0.264,-0.2618,-0.2616,-0.2615,-0.2613,-0.2625,-0.2627,-0.2629,0,0,0,0,0,0,0,0,0,0,0,0,0,-0.2488,-0.2428,-0.2564,-0.2566,-0.2567,-0.2638,-0.2639,-0.264,-0.2618,-0.2616,-0.2614,-0.2612,-0.2625,-0.2627,-0.2629,-0.2682,0,0,-0.2636,-0.2637,0,0,0,0,0,0,0,0,-0.2485,-0.2493,-0.2565,-0.2566,-0.2567,-0.2619,-0.2595,-0.2652,-0.2619,-0.2596,-0.2614,-0.2611,-0.2621,-0.2623,-0.2639,-0.2683,-0.2684,-0.2636,-0.2638,-0.2639,-0.2639,0,0,0,0,0,0,0,-0.248,-0.249,-0.2591,-0.2566,-0.2568,-0.2571,-0.2577,-0.2605,-0.2615,-0.2598,-0.2597,-0.261,-0.2621,-0.2637,-0.2639,-0.2684,-0.2636,-0.2638,-0.264,-0.2641,-0.2727,-0.2728,0,0,0,0,0,0,-0.2478,-0.2486,-0.2588,-0.2593,-0.2523,-0.2575,-0.2582,-0.2602,-0.2616,-0.2618,-0.2612,-0.2609,-0.2634,-0.2636,-0.2639,-0.2665,-0.2639,-0.2641,-0.2642,-0.2726,-0.2727,-0.2728,0,0,0,0,0,0,-0.2475,-0.2487,-0.2586,-0.2543,-0.2556,-0.258,-0.2602,-0.2605,-0.2616,-0.2628,-0.2627,-0.262,-0.2632,-0.2636,-0.2661,-0.2667,-0.2642,-0.2644,-0.2725,-0.2727,-0.2728,-0.2742,0,0,0,0,0,0,-0.2471,-0.2486,-0.2492,-0.2543,-0.2558,-0.2623,-0.2605,-0.2608,-0.2629,-0.2626,-0.2636,-0.2635,-0.2631,-0.2658,-0.2664,-0.2669,-0.2646,-0.2724,-0.2726,-0.2727,-0.274,-0.2743,-0.2746,0,0,0,0,0,-0.2466,-0.2489,-0.2492,-0.2504,-0.2569,-0.2624,-0.2632,-0.264,-0.2631,-0.2642,-0.2648,-0.2634,-0.2672,-0.2661,-0.2668,-0.2674,-0.2723,-0.2725,-0.2727,-0.2739,-0.2743,-0.2746,0,0,0,0,0,0,-0.2429,-0.2491,-0.2495,-0.2534,-0.2572,-0.2621,-0.2635,-0.2647,-0.2664,-0.2657,-0.2658,-0.2659,-0.2679,-0.2684,-0.2672,-0.2704,-0.2692,-0.2695,-0.2698,-0.2702,-0.2705,-0.2701,-0.2648,0,0,0,0,0,-0.2427,-0.2457,-0.2514,-0.254,-0.2563,-0.26,-0.2621,-0.2634,-0.2662,-0.2667,-0.2677,-0.2685,-0.2698,-0.2704,-0.2718,-0.2748,-0.2735,-0.2754,-0.2757,-0.2759,-0.2761,-0.2756,-0.2758,-0.2735,-0.2735,-0.2735,0,0,-0.2417,-0.2456,-0.247,-0.2534,-0.2562,-0.2605,-0.2607,-0.2647,-0.2672,-0.2668,-0.2696,-0.2701,-0.2709,-0.2731,-0.2741,-0.2733,-0.2757,-0.2762,-0.2764,-0.2764,-0.2758,-0.276,-0.2762,-0.2736,-0.2736,-0.2736,0,0,-0.2424,-0.2452,-0.2481,-0.2521,-0.2575,-0.2605,-0.2619,-0.2674,-0.2683,-0.2723,-0.2716,-0.2727,-0.2759,-0.2759,-0.2764,-0.2799,-0.2774,-0.2801,-0.2813,-0.2808,-0.2809,-0.281,-0.2783,-0.2782,-0.2801,-0.2801,-0.2801,0,-0.2406,-0.2457,-0.2496,-0.254,-0.2571,-0.2607,-0.2647,-0.2675,-0.2726,-0.2738,-0.2728,-0.2767,-0.2769,-0.2791,-0.2794,-0.2804,-0.279,-0.2795,-0.281,-0.2811,-0.2812,-0.2784,-0.2783,-0.2802,-0.2801,-0.2801,-0.2801,0,-0.2442,-0.248,-0.2504,-0.2568,-0.2605,-0.2647,-0.2698,-0.2726,-0.2742,-0.2765,-0.2791,-0.2799,-0.2815,-0.2818,-0.2816,-0.2827,-0.2811,-0.2813,-0.2796,-0.2815,-0.2785,-0.2783,-0.2803,-0.2803,-0.2802,-0.2802,0,0,-0.2404,-0.2508,-0.2513,-0.2544,-0.2625,-0.2658,-0.2707,-0.2759,-0.2782,-0.2811,-0.2833,-0.285,-0.2847,-0.2853,-0.285,-0.2846,-0.2832,-0.2832,-0.2831,-0.2796,-0.2804,-0.2708,-0.2696,-0.2835,-0.2836,-0.2836,-0.2775,0,-0.2415,-0.2493,-0.2546,-0.2605,-0.2647,-0.2699,-0.2742,-0.2788,-0.2816,-0.2846,-0.2852,-0.287,-0.2863,-0.2864,-0.2861,-0.2848,-0.283,-0.2847,-0.2799,-0.2797,-0.2703,-0.2692,-0.2495,-0.2418,-0.2773,-0.2772,-0.2772,0,-0.2425,-0.248,-0.2545,-0.2627,-0.2649,-0.2687,-0.275,-0.2792,-0.2843,-0.2865,-0.2886,-0.2893,-0.2899,-0.2883,-0.2862,-0.2874,-0.2836,-0.2817,-0.2814,-0.2719,-0.2697,-0.2461,-0.24,-0.2768,-0.2768,-0.2769,-0.2769,0,-0.2371,-0.2469,-0.2517,-0.2548,-0.2652,-0.2679,-0.2723,-0.2788,-0.2821,-0.2867,-0.2888,-0.2906,-0.2905,-0.2882,-0.2843,-0.2853,-0.2802,-0.2812,-0.2686,-0.2678,-0.2498,-0.2474,-0.2778,-0.2778,-0.2778,-0.2778,-0.2779,0,-0.2361,-0.2395,-0.2493,-0.2522,-0.2564,-0.2644,-0.2688,-0.2736,-0.2803,-0.283,-0.288,-0.2892,-0.2904,-0.2881,-0.2844,-0.2748,-0.2799,-0.2676,-0.2655,-0.2496,-0.2474,-0.2775,-0.2775,-0.2776,-0.2777,-0.2777,-0.2778,0,-0.2293,-0.2367,-0.2418,-0.2518,-0.2542,-0.2564,-0.2658,-0.2687,-0.2765,-0.28,-0.2813,-0.2875,-0.2839,-0.2824,-0.2779,-0.273,-0.2662,-0.2609,-0.241,-0.2366,-0.2541,-0.2544,-0.2469,-0.2465,-0.2462,-0.2459,-0.2457,0,-0.2266,-0.2288,-0.2382,-0.24,-0.2442,-0.2496,-0.253,-0.2639,-0.2675,-0.2774,-0.2775,-0.2781,-0.2735,-0.2642,-0.2548,-0.244,-0.2545,-0.2225,-0.221,-0.2522,-0.2509,-0.2517,-0.2523,-0.1972,-0.1966,-0.1961,-0.1957,0,-0.219,-0.2223,-0.226,-0.2304,-0.234,-0.2387,-0.2448,-0.2477,-0.2594,-0.2627,-0.2643,-0.2614,-0.2528,-0.2328,-0.2211,-0.2136,-0.2232,-0.2119,-0.2484,-0.2088,-0.205,-0.204,-0.2063,-0.1912,-0.1917,-0.192,-0.1922,-0.1924,-0.2103,-0.2104,-0.2147,-0.2175,-0.2215,-0.2237,-0.2226,-0.2292,-0.2315,-0.2301,-0.2408,-0.2277,-0.2254,-0.194,-0.184,-0.1762,-0.1914,-0.1848,-0.1865,-0.1887,-0.1847,-0.1806,-0.1614,-0.1616,-0.1619,-0.1621,-0.1623,0,-0.1969,-0.199,-0.2012,-0.2036,-0.2012,-0.2092,-0.213,-0.2065,-0.2013,-0.2023,-0.1981,-0.1747,-0.1605,-0.1583,-0.1381,-0.1356,-0.1357,-0.132,-0.1326,-0.1369,-0.1408,-0.1347,-0.098,-0.0978,-0.0976,-0.0975,0,0,-0.1897,-0.1866,-0.1885,-0.1808,-0.1823,-0.1731,-0.1714,-0.1635,-0.1591,-0.1456,-0.1382,-0.1461,-0.1502,-0.1226,-0.1179,-0.1043,-0.1194,-0.099,-0.1501,-0.1548,-0.1585,-0.1703,-0.1655,0,0,0,0,0]},{"header":{"parameterUnit":"m.s-1","parameterCategory":2,"la1":30.2991,"la2":30.254,"lo1":-89.0895,"lo2":-89.0444,"dy":0.0017,"dx":0.0017,"nx":28,"ny":28,"refTime":"2025-05-01T09:00:00:Z","depth":"2","parameterNumber":3,"parameterNumberName":"V-component_of_CURRENTS"},"data":[0,0,0,0,0,0,0,0,0,0,0,0,0,0,0,0,0,0,0,0,0,0,0,0,0,0,0,0,0,0,0,0,0,0,0,0,0,0,0,0,0,0,0,0,0,0,0,0,0,0,0,0,0,0,0,0,0,0,-0.0117,-0.0116,0,-0.0011,-0.001,-0.0008,0.0078,0.0078,0.0079,0.008,0.0245,0.0249,0.0252,0,0,0,0,0,0,0,0,0,0,0,0,0,-0.0185,-0.0184,-0.0117,-0.0116,-0.0115,-0.0011,-0.001,-0.0008,0.0078,0.0078,0.0079,0.008,0.0244,0.0248,0.0253,0,0,0,0,0,0,0,0,0,0,0,0,0,-0.0123,-0.0184,-0.0117,-0.0061,-0.0055,-0.0012,-0.0009,-0.0007,0.0077,0.0078,0.008,0.008,0.0242,0.0248,0.0253,0.0267,0,0,0.0271,0.0273,0,0,0,0,0,0,0,0,-0.0127,-0.012,-0.007,-0.0065,-0.0058,0.002,0.0027,0.0087,0.0077,0.0029,0.008,0.0081,0.0173,0.0184,0.0204,0.0275,0.0282,0.0271,0.0274,0.0277,0.0278,0,0,0,0,0,0,0,-0.0131,-0.0124,-0.0073,-0.0069,-0.0062,-0.002,-0.0011,0.0039,0.0097,0.0033,0.0039,0.0048,0.0177,0.0198,0.0209,0.0284,0.0271,0.0276,0.0279,0.0282,0.0403,0.0403,0,0,0,0,0,0,-0.0152,-0.0129,-0.0076,-0.007,-0.0093,-0.0021,-0.001,-0.0005,0.0095,0.011,0.0047,0.0051,0.0188,0.0202,0.0215,0.0248,0.0277,0.0282,0.0285,0.0403,0.0403,0.0403,0,0,0,0,0,0,-0.0154,-0.0149,-0.0081,-0.0098,-0.0087,-0.0021,-0.0016,-0.0003,0.002,0.0104,0.0121,0.0057,0.019,0.0207,0.0258,0.0255,0.0285,0.029,0.0404,0.0403,0.0403,0.0308,0,0,0,0,0,0,-0.0157,-0.015,-0.0157,-0.01,-0.0087,-0.0064,-0.0017,-0.0002,0.0022,0.003,0.0118,0.0135,0.0192,0.0249,0.0263,0.0263,0.0294,0.0404,0.0404,0.0403,0.0312,0.0305,0.0299,0,0,0,0,0,-0.016,-0.0178,-0.0159,-0.0152,-0.0098,-0.0065,-0.0055,-0.0003,0.0021,0.0024,0.0087,0.0132,0.0258,0.0253,0.027,0.0272,0.0404,0.0404,0.0403,0.0314,0.0306,0.0299,0,0,0,0,0,0,-0.0212,-0.017,-0.0147,-0.0152,-0.0115,-0.0052,-0.0048,-0.0012,0.0039,0.0047,0.0129,0.015,0.0193,0.0244,0.0236,0.0307,0.0339,0.0342,0.0266,0.0259,0.0252,0.0237,0.0299,0,0,0,0,0,-0.0229,-0.023,-0.018,-0.0184,-0.017,-0.0111,-0.0093,-0.0058,-0.0005,0.0018,0.008,0.0147,0.0203,0.0238,0.0292,0.0329,0.0386,0.0343,0.0336,0.0331,0.033,0.0403,0.0404,0.0402,0.0402,0.0402,0,0,-0.025,-0.0228,-0.0228,-0.0195,-0.0162,-0.0153,-0.0097,-0.0078,-0.0061,0.0027,0.0064,0.0124,0.0207,0.0249,0.0274,0.0293,0.0361,0.033,0.0325,0.0327,0.0403,0.0403,0.0403,0.0402,0.0402,0.0402,0,0,-0.0299,-0.0275,-0.0292,-0.0268,-0.023,-0.0192,-0.0191,-0.0133,-0.0098,-0.0059,0.001,0.0067,0.0149,0.0211,0.0254,0.0246,0.032,0.0261,0.0225,0.0295,0.0296,0.0297,0.0365,0.0374,0.0264,0.0263,0.0263,0,-0.0327,-0.0338,-0.0293,-0.03,-0.0285,-0.0216,-0.0225,-0.0182,-0.0114,-0.0084,-0.0061,0.0069,0.0134,0.0203,0.02,0.0232,0.0282,0.0243,0.0286,0.0288,0.0291,0.0362,0.0372,0.0259,0.0259,0.026,0.026,0,-0.0383,-0.0388,-0.0397,-0.038,-0.0359,-0.0358,-0.0295,-0.0266,-0.0218,-0.0164,-0.0094,-0.0003,0.0078,0.0105,0.0152,0.0205,0.0236,0.0262,0.03,0.0285,0.0361,0.0373,0.0252,0.0254,0.0255,0.0256,0,0,-0.0451,-0.0441,-0.0443,-0.0448,-0.0401,-0.0392,-0.0364,-0.0313,-0.0289,-0.0212,-0.0168,-0.0071,-0.0014,0.0037,0.0108,0.017,0.0231,0.0215,0.0221,0.0274,0.0386,0.0429,0.0448,0.0261,0.0263,0.0264,0.0429,0,-0.0508,-0.0549,-0.0517,-0.0541,-0.0553,-0.0481,-0.046,-0.0401,-0.0334,-0.0273,-0.0162,-0.0096,-0.004,-0.0,0.0069,0.0191,0.026,0.0184,0.0401,0.0408,0.044,0.0462,0.0369,0.051,0.0442,0.0444,0.0445,0,-0.057,-0.0589,-0.0631,-0.0619,-0.0616,-0.0613,-0.056,-0.053,-0.0421,-0.0365,-0.0273,-0.0179,-0.0067,-0.0023,0.0179,0.0126,0.0244,0.0339,0.0349,0.0432,0.0474,0.0517,0.0536,0.0467,0.0465,0.0464,0.0462,0,-0.0646,-0.0664,-0.0702,-0.0699,-0.0675,-0.0671,-0.0648,-0.0561,-0.0529,-0.0417,-0.0376,-0.0227,-0.0141,0.0012,0.0213,0.0197,0.0439,0.0448,0.0603,0.0608,0.0595,0.0596,0.0592,0.0592,0.0592,0.0591,0.0591,0,-0.0719,-0.0747,-0.0744,-0.0765,-0.08,-0.0747,-0.0749,-0.0699,-0.0614,-0.0567,-0.0432,-0.0349,-0.0129,0.0042,0.0206,0.045,0.0443,0.0608,0.0658,0.056,0.0556,0.0569,0.0564,0.0597,0.0596,0.0595,0.0594,0,-0.0795,-0.0793,-0.0838,-0.0837,-0.084,-0.0862,-0.0833,-0.0824,-0.0734,-0.0666,-0.0631,-0.0425,-0.0192,0.0036,0.0316,0.0452,0.0671,0.076,0.0632,0.0664,0.0792,0.078,0.0944,0.0947,0.0949,0.0951,0.0953,0,-0.0839,-0.0872,-0.0905,-0.0938,-0.0943,-0.0962,-0.0969,-0.0896,-0.0869,-0.0698,-0.0665,-0.0424,-0.0221,0.0196,0.0454,0.0756,0.0772,0.0857,0.0815,0.0798,0.0831,0.0815,0.08,0.0761,0.0761,0.0761,0.0761,0,-0.092,-0.0927,-0.0962,-0.1036,-0.1067,-0.1092,-0.1087,-0.1083,-0.0967,-0.0863,-0.0668,-0.0486,-0.0093,0.022,0.0593,0.0753,0.0794,0.087,0.0903,0.0683,0.0639,0.0666,0.0655,0.0761,0.0761,0.0761,0.0761,0.0761,-0.0968,-0.1015,-0.1062,-0.1127,-0.1168,-0.1198,-0.1201,-0.1154,-0.1073,-0.0889,-0.0703,-0.0399,-0.0117,0.0409,0.0648,0.086,0.0878,0.0921,0.0915,0.091,0.0857,0.0819,0.0966,0.0967,0.0968,0.0968,0.0969,0,-0.1024,-0.1072,-0.1148,-0.1215,-0.1268,-0.1263,-0.1254,-0.1215,-0.11,-0.0896,-0.0665,-0.0317,0.0044,0.0354,0.0675,0.0886,0.0838,0.0922,0.0799,0.0798,0.0796,0.0732,0.0811,0.0812,0.0812,0.0813,0,0,-0.1055,-0.1135,-0.1175,-0.1276,-0.1318,-0.1345,-0.1327,-0.1238,-0.109,-0.0864,-0.0625,-0.0328,0.0055,0.0253,0.0489,0.0659,0.0673,0.067,0.0768,0.0589,0.0585,0.0764,0.066,0,0,0,0,0]}],[{"header":{"parameterUnit":"m.s-1","parameterCategory":2,"la1":30.2991,"la2":30.254,"lo1":-89.0895,"lo2":-89.0444,"dy":0.0017,"dx":0.0017,"nx":28,"ny":28,"refTime":"2025-05-01T09:00:00:Z","depth":"4","parameterNumber":2,"parameterNumberName":"U-component_of_CURRENTS"},"data":[0,0,0,0,0,0,0,0,0,0,0,0,0,0,0,0,0,0,0,0,0,0,0,0,0,0,0,0,0,0,0,0,0,0,0,0,0,0,0,0,0,0,0,0,0,0,0,0,0,0,0,0,0,0,0,0,0,0,-0.1774,-0.1775,0,-0.1877,-0.1878,-0.1879,-0.1924,-0.1924,-0.1924,-0.1924,-0.1996,-0.1998,-0.2,0,0,0,0,0,0,0,0,0,0,0,0,0,-0.1627,-0.163,-0.1774,-0.1776,-0.1777,-0.1876,-0.1878,-0.1879,-0.1924,-0.1924,-0.1924,-0.1924,-0.1996,-0.1998,-0.2,0,0,0,0,0,0,0,0,0,0,0,0,0,-0.1705,-0.163,-0.1774,-0.1813,-0.1817,-0.1876,-0.1878,-0.1879,-0.1924,-0.1924,-0.1924,-0.1924,-0.1995,-0.1998,-0.2001,-0.2018,0,0,-0.2009,-0.201,0,0,0,0,0,0,0,0,-0.1701,-0.171,-0.1806,-0.181,-0.1816,-0.1889,-0.1853,-0.1925,-0.1924,-0.1882,-0.1924,-0.1924,-0.1959,-0.1964,-0.1982,-0.2021,-0.2024,-0.2009,-0.2011,-0.2012,-0.2013,0,0,0,0,0,0,0,-0.1695,-0.1706,-0.1813,-0.1807,-0.1813,-0.1829,-0.1839,-0.1866,-0.1917,-0.1886,-0.189,-0.1904,-0.1961,-0.1979,-0.1984,-0.2025,-0.2009,-0.2012,-0.2014,-0.2015,-0.2154,-0.2156,0,0,0,0,0,0,-0.1686,-0.1701,-0.181,-0.1816,-0.1759,-0.1831,-0.1843,-0.1864,-0.1918,-0.1927,-0.1903,-0.1905,-0.1974,-0.198,-0.1986,-0.2069,-0.2012,-0.2015,-0.2017,-0.2152,-0.2155,-0.2157,0,0,0,0,0,0,-0.1682,-0.1695,-0.1806,-0.1762,-0.1777,-0.1834,-0.1857,-0.1866,-0.1914,-0.1932,-0.194,-0.1945,-0.1974,-0.1982,-0.2042,-0.2069,-0.2016,-0.2019,-0.215,-0.2153,-0.2156,-0.2195,0,0,0,0,0,0,-0.1678,-0.1693,-0.1716,-0.1761,-0.1779,-0.1857,-0.1857,-0.1868,-0.1921,-0.1926,-0.1969,-0.1974,-0.1975,-0.2038,-0.2045,-0.2072,-0.2021,-0.2147,-0.2151,-0.2155,-0.2191,-0.2199,-0.2206,0,0,0,0,0,-0.1672,-0.1702,-0.1717,-0.1731,-0.1806,-0.1858,-0.1869,-0.1907,-0.1923,-0.195,-0.1986,-0.1975,-0.2066,-0.2042,-0.205,-0.2079,-0.2146,-0.215,-0.2155,-0.2188,-0.2198,-0.2206,0,0,0,0,0,0,-0.1652,-0.1711,-0.1728,-0.1775,-0.182,-0.1867,-0.19,-0.1927,-0.1978,-0.1991,-0.2004,-0.2013,-0.2072,-0.2078,-0.2051,-0.2132,-0.2103,-0.2109,-0.2126,-0.2135,-0.2142,-0.2131,-0.2024,0,0,0,0,0,-0.1657,-0.1696,-0.1749,-0.1788,-0.1814,-0.1864,-0.1895,-0.1925,-0.197,-0.1994,-0.2027,-0.2063,-0.2093,-0.2116,-0.2143,-0.2193,-0.2173,-0.2217,-0.2225,-0.223,-0.2229,-0.223,-0.2236,-0.2172,-0.2172,-0.2171,0,0,-0.1661,-0.1698,-0.1722,-0.1787,-0.1826,-0.1873,-0.1884,-0.1943,-0.1986,-0.1993,-0.207,-0.2092,-0.2113,-0.2165,-0.2191,-0.2176,-0.2239,-0.2236,-0.2241,-0.2236,-0.2235,-0.2241,-0.2246,-0.2175,-0.2174,-0.2174,0,0,-0.1678,-0.1722,-0.1758,-0.1801,-0.1867,-0.1899,-0.1923,-0.1991,-0.2028,-0.2099,-0.2111,-0.2154,-0.2214,-0.2228,-0.2241,-0.2308,-0.2276,-0.2323,-0.2352,-0.2354,-0.2358,-0.2362,-0.2335,-0.2336,-0.2327,-0.2327,-0.2327,0,-0.168,-0.1733,-0.1776,-0.1822,-0.1863,-0.1915,-0.1963,-0.2008,-0.2089,-0.2121,-0.2131,-0.2221,-0.2239,-0.2287,-0.2309,-0.2322,-0.2309,-0.2313,-0.236,-0.2363,-0.2366,-0.2338,-0.2338,-0.233,-0.2329,-0.2329,-0.2329,0,-0.1715,-0.177,-0.1798,-0.187,-0.1918,-0.1972,-0.2035,-0.2093,-0.2144,-0.2182,-0.2256,-0.2286,-0.2332,-0.2349,-0.2351,-0.239,-0.2368,-0.2365,-0.2329,-0.2375,-0.2342,-0.2342,-0.2333,-0.2332,-0.2331,-0.2331,0,0,-0.1686,-0.18,-0.1812,-0.1856,-0.1952,-0.1992,-0.2071,-0.2147,-0.2196,-0.2267,-0.2321,-0.2379,-0.2394,-0.2409,-0.242,-0.2426,-0.2433,-0.241,-0.2408,-0.2367,-0.2417,-0.2254,-0.2237,-0.2438,-0.2439,-0.2439,-0.2381,0,-0.1702,-0.1787,-0.1845,-0.1932,-0.198,-0.2056,-0.2121,-0.2196,-0.2257,-0.2321,-0.2358,-0.2412,-0.2417,-0.244,-0.2451,-0.2443,-0.2437,-0.2448,-0.2393,-0.2391,-0.2227,-0.2233,-0.2441,-0.238,-0.238,-0.238,-0.238,0,-0.1708,-0.1769,-0.1855,-0.1966,-0.1996,-0.2057,-0.2164,-0.2228,-0.2318,-0.2365,-0.2421,-0.2448,-0.2485,-0.2475,-0.2475,-0.2483,-0.2454,-0.2437,-0.2434,-0.2265,-0.2227,-0.2331,-0.2379,-0.2379,-0.2379,-0.2379,-0.2379,0,-0.1649,-0.1771,-0.1841,-0.1881,-0.2013,-0.2071,-0.2141,-0.2242,-0.2296,-0.2387,-0.2424,-0.2476,-0.2497,-0.2488,-0.2459,-0.2473,-0.2429,-0.2441,-0.2262,-0.225,-0.2397,-0.2394,-0.2424,-0.2424,-0.2424,-0.2424,-0.2425,0,-0.1626,-0.1686,-0.1826,-0.1864,-0.1945,-0.2048,-0.2136,-0.221,-0.2308,-0.2348,-0.2436,-0.2451,-0.2503,-0.2487,-0.2458,-0.2339,-0.2425,-0.2252,-0.2221,-0.2415,-0.2415,-0.2396,-0.2393,-0.2422,-0.2423,-0.2423,-0.2423,0,-0.1547,-0.1644,-0.1728,-0.1874,-0.1921,-0.1977,-0.2121,-0.2168,-0.2279,-0.2329,-0.2356,-0.2435,-0.2402,-0.2411,-0.238,-0.231,-0.2232,-0.2167,-0.235,-0.2334,-0.2055,-0.2056,-0.1965,-0.1958,-0.1953,-0.1949,-0.1945,0,-0.1512,-0.155,-0.1706,-0.175,-0.1822,-0.1926,-0.1986,-0.2129,-0.217,-0.2286,-0.2279,-0.2305,-0.2328,-0.2136,-0.2182,-0.2092,-0.2072,-0.2026,-0.2062,-0.2027,-0.2008,-0.2017,-0.2025,-0.1936,-0.1935,-0.1934,-0.1932,0,-0.1432,-0.1501,-0.1566,-0.1653,-0.173,-0.1806,-0.1902,-0.1915,-0.2053,-0.2179,-0.2127,-0.2097,-0.2049,-0.2011,-0.1945,-0.1894,-0.2058,-0.197,-0.1982,-0.2016,-0.1992,-0.198,-0.1994,-0.1914,-0.1916,-0.1918,-0.1919,0,-0.1363,-0.1382,-0.1467,-0.1528,-0.1615,-0.1638,-0.172,-0.1753,-0.1809,-0.1942,-0.1914,-0.1939,-0.2013,-0.1904,-0.1848,-0.1777,-0.1763,-0.1721,-0.1745,-0.1767,-0.173,-0.1673,-0.1452,0,0,0,0,0,-0.1282,-0.1284,-0.1331,-0.1387,-0.1463,-0.1508,-0.1632,-0.1716,-0.1851,-0.1755,-0.1829,-0.1771,-0.1695,-0.1718,-0.1598,-0.1767,-0.1774,-0.1624,-0.1741,-0.1811,-0.1832,-0.1808,0,0,0,0,0,0,-0.1224,-0.1262,-0.1278,-0.1244,-0.1248,-0.1314,-0.138,-0.1482,-0.1446,-0.1584,-0.154,-0.1654,-0.1595,-0.1707,-0.1551,-0.1558,-0.1595,-0.1659,-0.1654,-0.1798,-0.1818,-0.1835,-0.1818,0,0,0,0,0]},{"header":{"parameterUnit":"m.s-1","parameterCategory":2,"la1":30.2991,"la2":30.254,"lo1":-89.0895,"lo2":-89.0444,"dy":0.0017,"dx":0.0017,"nx":28,"ny":28,"refTime":"2025-05-01T09:00:00:Z","depth":"4","parameterNumber":3,"parameterNumberName":"V-component_of_CURRENTS"},"data":[0,0,0,0,0,0,0,0,0,0,0,0,0,0,0,0,0,0,0,0,0,0,0,0,0,0,0,0,0,0,0,0,0,0,0,0,0,0,0,0,0,0,0,0,0,0,0,0,0,0,0,0,0,0,0,0,0,0,-0.0199,-0.0198,0,-0.0126,-0.0125,-0.0124,-0.0064,-0.0063,-0.0063,-0.0062,0.0049,0.0052,0.0054,0,0,0,0,0,0,0,0,0,0,0,0,0,-0.0246,-0.0246,-0.0199,-0.0198,-0.0197,-0.0126,-0.0125,-0.0124,-0.0064,-0.0063,-0.0063,-0.0062,0.0049,0.0051,0.0054,0,0,0,0,0,0,0,0,0,0,0,0,0,-0.0203,-0.0246,-0.0199,-0.016,-0.0156,-0.0126,-0.0125,-0.0124,-0.0064,-0.0063,-0.0062,-0.0062,0.0048,0.0051,0.0055,0.0063,0,0,0.0066,0.0068,0,0,0,0,0,0,0,0,-0.0206,-0.0202,-0.0166,-0.0162,-0.0158,-0.0104,-0.0101,-0.006,-0.0064,-0.0097,-0.0062,-0.0061,-0.0,0.0008,0.0021,0.0068,0.0073,0.0067,0.0069,0.0071,0.0072,0,0,0,0,0,0,0,-0.0209,-0.0204,-0.0168,-0.0165,-0.016,-0.0133,-0.0126,-0.0093,-0.0052,-0.0094,-0.009,-0.0085,0.0003,0.0017,0.0024,0.0075,0.0067,0.007,0.0072,0.0074,0.018,0.0181,0,0,0,0,0,0,-0.0224,-0.0207,-0.0171,-0.0166,-0.0182,-0.0133,-0.0125,-0.0121,-0.0053,-0.0043,-0.0085,-0.0082,0.0011,0.002,0.0029,0.0061,0.0071,0.0074,0.0076,0.018,0.018,0.0181,0,0,0,0,0,0,-0.0225,-0.0221,-0.0174,-0.0186,-0.0178,-0.0133,-0.0129,-0.012,-0.0104,-0.0047,-0.0035,-0.0079,0.0012,0.0023,0.0062,0.0065,0.0076,0.0079,0.0179,0.018,0.0181,0.0113,0,0,0,0,0,0,-0.0227,-0.0222,-0.0228,-0.0187,-0.0178,-0.0163,-0.0129,-0.0119,-0.0103,-0.0098,-0.0037,-0.0026,0.0013,0.0056,0.0066,0.007,0.0082,0.0178,0.0179,0.018,0.0114,0.0111,0.0108,0,0,0,0,0,-0.0229,-0.0242,-0.0229,-0.0225,-0.0187,-0.0164,-0.0157,-0.012,-0.0104,-0.0102,-0.0055,-0.0028,0.007,0.0059,0.007,0.0076,0.0178,0.0179,0.018,0.0115,0.0112,0.0109,0,0,0,0,0,0,-0.0265,-0.0236,-0.0221,-0.0224,-0.0199,-0.0154,-0.0153,-0.0127,-0.009,-0.0085,-0.0027,-0.0013,0.0023,0.006,0.0046,0.0113,0.0131,0.0135,0.0078,0.0075,0.0072,0.0057,0.0085,0,0,0,0,0,-0.0278,-0.0279,-0.0244,-0.0247,-0.0238,-0.0197,-0.0185,-0.0161,-0.0122,-0.0105,-0.0061,-0.0009,0.0037,0.0063,0.0104,0.0135,0.0174,0.015,0.0147,0.0144,0.0142,0.0205,0.0207,0.0185,0.0185,0.0185,0,0,-0.0293,-0.0278,-0.0278,-0.0255,-0.0233,-0.0226,-0.0187,-0.0175,-0.0162,-0.0099,-0.0071,-0.0024,0.0042,0.0079,0.0099,0.0111,0.0171,0.0146,0.0143,0.0142,0.0207,0.0209,0.0211,0.0186,0.0186,0.0186,0,0,-0.0326,-0.0312,-0.0323,-0.0307,-0.0282,-0.0255,-0.0255,-0.0214,-0.0188,-0.0158,-0.0104,-0.0055,0.0006,0.0061,0.0096,0.0103,0.0149,0.0117,0.0094,0.0155,0.0157,0.0159,0.0202,0.0209,0.012,0.012,0.012,0,-0.0347,-0.0353,-0.0324,-0.0328,-0.0319,-0.0272,-0.0278,-0.0247,-0.0196,-0.0172,-0.0158,-0.0049,0.0001,0.0066,0.007,0.0096,0.013,0.0096,0.0149,0.0152,0.0156,0.02,0.0208,0.0117,0.0117,0.0118,0.0118,0,-0.0382,-0.0388,-0.0394,-0.0382,-0.0368,-0.0368,-0.0323,-0.0303,-0.0268,-0.0227,-0.0166,-0.0093,-0.0025,0.0001,0.0037,0.0091,0.0106,0.0131,0.015,0.0154,0.02,0.021,0.0112,0.0114,0.0114,0.0115,0,0,-0.0426,-0.0422,-0.0425,-0.043,-0.0398,-0.0392,-0.037,-0.0331,-0.0313,-0.0252,-0.0215,-0.0128,-0.0084,-0.0041,0.0018,0.0073,0.0123,0.0104,0.0109,0.0133,0.0244,0.0204,0.0212,0.0153,0.0155,0.0156,0.0262,0,-0.0463,-0.0491,-0.0471,-0.0491,-0.0499,-0.0452,-0.0435,-0.0391,-0.0342,-0.0295,-0.0202,-0.0148,-0.01,-0.0069,-0.0005,0.0092,0.0147,0.0091,0.025,0.0255,0.0208,0.0221,0.0161,0.027,0.0272,0.0274,0.0275,0,-0.0501,-0.0515,-0.0547,-0.0544,-0.0543,-0.0546,-0.051,-0.0488,-0.0404,-0.0362,-0.0285,-0.0212,-0.0114,-0.008,0.0087,0.0046,0.0135,0.021,0.0217,0.021,0.0233,0.0273,0.0293,0.0292,0.029,0.0289,0.0288,0,-0.0546,-0.0565,-0.0595,-0.0595,-0.0583,-0.0587,-0.0575,-0.0512,-0.0491,-0.0404,-0.0375,-0.0247,-0.0183,-0.0053,0.0099,0.0095,0.0275,0.0296,0.0347,0.0346,0.0378,0.0375,0.0412,0.0412,0.0411,0.0411,0.0411,0,-0.0586,-0.0612,-0.0626,-0.0643,-0.0677,-0.0644,-0.0655,-0.0619,-0.0561,-0.0531,-0.0418,-0.0361,-0.0174,-0.0046,0.0088,0.024,0.0273,0.0343,0.0373,0.0347,0.0339,0.0385,0.038,0.0415,0.0414,0.0413,0.0413,0,-0.0625,-0.0635,-0.0677,-0.0692,-0.0703,-0.0727,-0.0726,-0.0723,-0.0662,-0.0619,-0.0593,-0.0438,-0.0272,-0.009,0.013,0.0217,0.0373,0.0421,0.0367,0.0393,0.0405,0.0396,0.0485,0.0485,0.0484,0.0484,0.0484,0,-0.0647,-0.0675,-0.0726,-0.0763,-0.0778,-0.0808,-0.0824,-0.0782,-0.0767,-0.0659,-0.0636,-0.0475,-0.0355,-0.0074,0.0109,0.0352,0.0385,0.0451,0.0437,0.0393,0.0414,0.0406,0.0397,0.0483,0.0483,0.0483,0.0483,0,-0.0689,-0.0713,-0.0746,-0.0823,-0.0866,-0.0901,-0.0915,-0.0912,-0.0841,-0.0793,-0.0652,-0.049,-0.0306,-0.0082,0.0102,0.0278,0.0397,0.0448,0.045,0.0438,0.0392,0.0411,0.0403,0.0482,0.0482,0.0482,0.0482,0,-0.0719,-0.0756,-0.0808,-0.0869,-0.0932,-0.0966,-0.097,-0.0928,-0.0897,-0.0765,-0.072,-0.0501,-0.0362,-0.0119,0.0054,0.0214,0.0254,0.0293,0.0304,0.0308,0.0217,0.0131,0.0166,0,0,0,0,0,-0.0742,-0.0783,-0.085,-0.0912,-0.0974,-0.1002,-0.1013,-0.0997,-0.0933,-0.0842,-0.0773,-0.059,-0.0313,-0.0185,-0.003,0.0025,0.0258,0.0206,0.0303,0.0474,0.0476,0.0395,0,0,0,0,0,0,-0.0758,-0.0823,-0.085,-0.093,-0.0978,-0.1032,-0.104,-0.1,-0.093,-0.0845,-0.069,-0.0579,-0.0307,-0.0399,-0.0034,0.0016,0.009,0.0349,0.0351,0.0473,0.0475,0.0476,0.0394,0,0,0,0,0]}]]